Regional Weather Roundup
Issued by NWS State College, PA

Current Version | Previous Version | Text Only | Print | Product List | Glossary On
Versions: 1 2 3 4 5 6 7 8 9 10 11 12 13 14 15 16 17 18 19 20 21 22 23 24 25 26 27 28 29 30 31 32 33 34 35 36 37 38 39 40 41 42 43 44 45 46 47 48 49 50
000
ASUS41 KCTP 161710
RWRCTP

REGIONAL WEATHER ROUNDUP
NATIONAL WEATHER SERVICE STATE COLLEGE PA
1200 PM EST MON JAN 16 2017

Note: "fair" indicates few or no clouds below 12,000 feet with no
significant weather and/or obstructions to visibility.

* = STATION THAT DOES NOT REPORT PRECIPITATION /E.G. RAIN...SNOW...ETC/
    THUNDER OR FOG.

PAZ002>004-007>009-013>016-020>023-029>032-161800-
WESTERN PENNSYLVANIA

CITY           SKY/WX    TMP DP  RH WIND       PRES   REMARKS
ERIE           CLOUDY    38  18  44 CALM      30.33F
MEADVILLE      CLOUDY    34  19  54 CALM      30.30F
FRANKLIN*        N/A     30  19  64 E3        30.31F
NEW CASTLE     CLOUDY    31  26  82 W3        30.33F
BEAVER COUNTY  NOT AVBL
BUTLER*        CLOUDY    34  25  69 E5        30.33F
PITTSBURGH INT CLOUDY    34  26  72 CALM      30.30F
PITTSBURGH     CLOUDY    35  25  66 E3        30.28F
INDIANA*       CLOUDY    37  34  87 CALM      30.32F
LATROBE        PTSUNNY   32  28  86 CALM      30.32F
WASHINGTON CO* CLOUDY    36  28  75 CALM      30.30F
$$

PAZ004>006-010>012-017>019-024>028-033>037-041-042-045-046-049>053-161800-
CENTRAL PENNSYLVANIA

CITY           SKY/WX    TMP DP  RH WIND       PRES   REMARKS
BRADFORD       CLOUDY    37  11  34 SW8       30.28F
DUBOIS         CLOUDY    34  27  75 SE5       30.29F
CLEARFIELD     CLOUDY    29  24  82 CALM      30.33F
JOHNSTOWN      CLOUDY    35  31  85 S3        30.27F
ALTOONA        CLOUDY    34  26  72 CALM      30.34F
STATE COLLEGE  PTSUNNY   30  25  80 CALM      30.36F
WILLIAMSPORT   SUNNY     30  22  72 SE3       30.41F
SELINSGROVE    SUNNY     31  26  82 CALM      30.42F
FT INDIANTOWN  SUNNY     36  23  58 CALM      30.42F
CAPITAL CITY   CLOUDY    34  23  64 E3        30.44F
HARRISBURG     CLOUDY    33  24  69 SE3       30.44F
YORK           CLOUDY    33  27  78 CALM      30.43F
$$

PAZ038>040-043-044-047-048-054-055-060>062-067>071-161800-
EASTERN PENNSYLVANIA

CITY           SKY/WX    TMP DP  RH WIND       PRES   REMARKS
SCRANTON       SUNNY     30  20  66 SW7       30.39F
MOUNT POCONO   SUNNY     33  16  49 W15       30.33F
ALLENTOWN      SUNNY     36  21  54 CALM      30.44F
QUAKERTOWN*    SUNNY     37  19  48 SW5       30.43F
READING        SUNNY     37  22  54 VRB5      30.43F
LANCASTER      CLOUDY    36  27  69 CALM      30.44F
COATESVILLE    SUNNY     37  21  52 CALM      30.43F
POTTSTOWN      SUNNY     36  21  54 NW5       30.45F
BLUE BELL      SUNNY     37  23  56 CALM      30.43F
DOYLESTOWN     SUNNY     39  21  48 W3        30.42F
WILLOW GROVE   NOT AVBL
NORTH PHILA    SUNNY     42  21  43 CALM      30.46F
PHILADELPHIA   PTSUNNY   38  23  55 SW5       30.46F
$$



USA.gov is the U.S. government's official web portal to all federal, state and local government web resources and services.